Location: ?????????
(41.2393°N, 22.9479°E)
Time: 23:04:44
(UTC+00:00)

Daily predictions for brighter satellites

Satellite Brightness Start Highest point End
(mag) Time Altitude Azimuth Time Altitude Azimuth Time Altitude Azimuth
Meteor 1-21 4.3 16:29:16 10° N 16:35:06 85° E 16:40:49 10° S
Tiangong -2.0 16:33:05 10° WSW 16:36:11 64° SSE 16:39:18 10° E
Cosmos 2341 Rocket 4.2 16:30:26 10° N 16:36:46 82° W 16:43:06 10° S
NOSS 3-1 (A) 3.4 16:33:21 10° S 16:37:56 43° ESE 16:43:12 10° NE
CZ-4B R/B 3.0 16:37:47 10° SE 16:41:02 38° ENE 16:44:19 10° N
BREEZE-M DEB (TANK) 4.4 16:31:47 10° SW 16:41:15 53° SSE 16:44:39 10° ENE
USA 305 1.2 16:40:13 10° NW 16:42:27 65° NE 16:44:42 10° ESE
USA 307 1.8 16:40:49 10° NW 16:43:23 72° SW 16:46:02 10° SE
GEOS 3 Rocket 4.2 16:40:55 10° NNE 16:46:13 62° NW 16:51:23 10° SW
Meteor 1-29 3.5 16:43:38 10° S 16:46:25 51° W 16:49:13 10° NNW
Cosmos 2218 Rocket 4.0 16:41:09 10° N 16:47:21 90° W 16:53:32 10° S
Cosmos 2292 4.3 16:48:15 10° S 16:51:14 79° W 16:54:30 10° N
ADEOS 3.6 16:48:20 10° SSE 16:53:34 88° ENE 16:58:48 10° NNW
CZ-4B DEB 4.4 16:48:26 10° SE 16:53:37 48° ENE 16:58:50 10° N
Cosmos 1975 4.1 16:50:09 10° SSW 16:53:52 44° W 16:57:36 10° N
IGS 5A 3.9 16:51:40 10° SE 16:55:30 39° ENE 16:59:20 10° N
Cosmos 1269 Rocket 4.0 16:51:33 10° S 16:56:47 66° ESE 17:02:02 10° NNE
Cosmos 1980 3.8 16:51:35 10° S 16:57:02 53° ESE 17:02:30 10° NNE
Cosmos 1703 Rocket 3.7 16:58:13 10° N 17:02:42 83° W 17:07:10 10° S
CZ-4B R/B 3.9 16:59:52 10° SE 17:04:28 31° ENE 17:09:07 10° N
Cosmos 1867 3.6 17:00:08 10° SSW 17:05:27 61° ESE 17:10:50 10° NE
Cosmos 614 Rocket 4.0 17:01:25 10° SSW 17:06:29 85° WNW 17:11:34 10° NNE
Cosmos 1933 Rocket 4.2 17:03:10 10° SSW 17:07:29 60° W 17:11:48 10° N
Cosmos 1140 Rocket 4.4 17:04:42 10° SSE 17:08:46 24° E 17:12:51 10° NE
Cosmos 1766 3.0 17:06:39 10° S 17:10:24 71° E 17:14:09 10° NNE
Cosmos 2242 Rocket 3.7 17:06:12 10° N 17:10:40 55° E 17:15:07 10° SSE
Cosmos 2278 Rocket 2.2 17:05:41 10° NNW 17:11:20 63° ENE 17:16:56 10° SE
APEX 4.4 17:08:36 10° NW 17:11:43 35° WSW 17:14:28 10° S
PAYLOAD B 4.3 17:08:13 10° SE 17:13:36 54° ENE 17:18:59 10° N
SL-08 R/B 4.4 17:09:31 10° N 17:14:18 50° WNW 17:19:01 10° SW
NOSS 3-1 (C) 4.1 17:09:54 10° WSW 17:14:41 47° NW 17:20:21 10° NNE
Cosmos 1992 Rocket 3.9 17:10:06 10° NNW 17:15:21 77° ENE 17:20:34 10° SSE
Okean 2 3.4 17:12:54 10° N 17:16:56 80° W 17:20:56 10° S
Cosmos 1934 Rocket 4.4 17:11:58 10° N 17:17:49 39° ENE 17:23:33 10° SE
SL-08 R/B 4.4 17:14:35 10° N 17:20:43 72° E 17:26:48 10° SSE
ISS -2.6 17:20:41 10° WNW 17:23:51 40° SW 17:26:04 17° SSE
CZ-4C R/B 3.6 17:21:27 10° NNE 17:26:21 20° SSE 17:27:47 10° SSE
BREEZE-M DEB (TANK) 3.1 17:24:08 10° NW 17:26:40 49° NNE 17:28:47 27° E
Cosmos 2251 Rocket 4.2 17:23:47 10° SSE 17:28:23 31° E 17:33:00 10° NE
BREEZE M DEB (TANK) 2.3 17:28:41 10° W 17:30:49 46° NNW 17:32:27 23° NE
USA 276 1.3 17:28:38 10° SW 17:31:13 81° SSE 17:31:14 81° SE
YAOGAN 1 2.9 17:27:56 10° S 17:32:12 66° WSW 17:36:30 10° NNW
Cosmos 2239 Rocket 4.4 17:28:11 10° N 17:34:25 83° E 17:40:40 10° S
Cosmos 2237 Rocket 2.3 17:29:23 10° SSW 17:35:05 81° WNW 17:40:50 10° NNE
CZ-4 R/B 1.1 17:36:29 27° SSE 17:38:24 64° ENE 17:42:11 10° N
BREEZE-M R/B 4.4 17:33:13 10° NW 17:38:31 77° NNE 17:45:09 25° ESE
Cosmos 2369 Rocket 3.9 17:36:12 10° NNE 17:39:14 15° NE 17:39:23 15° NE
Cosmos 1821 Rocket 4.5 17:33:32 10° NNW 17:39:47 65° W 17:46:03 10° S
Lacrosse 5 3.6 17:38:00 10° NNW 17:41:45 20° NNE 17:43:18 18° NE
COSMOS 2455 3.6 17:36:19 10° NW 17:42:08 52° WSW 17:47:55 10° S
SL-4 R/B 2.1 17:38:40 10° SW 17:42:59 59° SE 17:43:53 47° E
SL-16 R/B 2.6 17:39:32 10° S 17:44:40 37° ESE 17:49:50 10° NE
Meteor 1-22 Rocket 4.1 17:43:47 10° S 17:48:53 52° E 17:54:02 10° NNE
ATLAS 3B R/B 4.1 17:43:07 10° WSW 17:49:32 38° NW 17:56:25 10° NNE
DEBRIS 4.2 17:49:23 10° W 17:51:19 22° SSW 17:52:09 20° S
Cosmos 1943 Rocket 2.2 17:46:22 10° NNW 17:52:00 62° ENE 17:54:01 38° SE
Cosmos 1470 2.7 17:48:33 10° S 17:52:23 81° W 17:56:17 10° N
CENTAUR R/B 4.5 17:46:48 10° NNW 17:52:54 23° NNE 17:56:11 19° ENE
ADEOS Rocket 3.8 17:51:46 31° ESE 17:54:40 43° ENE 18:01:23 10° N
Landsat 7 3.8 17:52:32 16° S 17:56:16 84° WSW 18:01:01 10° NNW
SJ-6B 2.7 17:55:31 50° SSE 17:56:31 85° ENE 18:00:31 10° N
Cosmos 2221 Rocket 4.1 17:57:56 10° N 18:01:28 43° NE 18:01:28 43° NE
Okean O Rocket 1.5 18:02:09 66° ESE 18:02:33 71° ENE 18:07:00 10° N
Meteor 1-12 Rocket 4.2 17:58:14 10° S 18:04:00 77° E 18:09:57 10° NNE
CSL-04 Debris 4.1 18:06:41 51° SE 18:07:54 67° ENE 18:13:17 10° N
USA 229 DEB 3.5 18:05:46 10° SW 18:11:53 83° NW 18:18:35 10° NE
USA 229 3.5 18:05:50 10° SW 18:11:58 84° NW 18:18:40 10° NE
Tiangong -0.3 18:09:43 10° W 18:11:32 31° W 18:11:32 31° W
Cosmos 407 Rocket 3.3 18:11:51 10° SSW 18:17:03 78° ESE 18:22:22 10° NNE
Resurs 1-3 3.8 18:17:13 59° SSW 18:17:51 68° WSW 18:22:12 10° NNW
Meteor 1-24 Rocket 3.4 18:17:15 10° N 18:22:39 81° E 18:22:46 80° ESE
CSL-04 Rocket 3.4 18:24:15 80° SE 18:24:30 83° ENE 18:29:51 10° NNW
USA 215 4.1 18:26:56 33° S 18:26:56 33° S 18:30:50 10° SSW
SME Rocket 4.2 18:18:15 10° S 18:25:58 69° WSW 18:31:02 10° NNW
Meteor 2-5 Rocket 3.6 18:21:24 10° N 18:27:04 87° W 18:27:52 67° S
Cosmos 1733 Rocket 4.3 18:25:02 10° SSW 18:29:09 41° WNW 18:33:17 10° N
SPOT 1/Viking Rocket 3.4 18:30:18 86° WNW 18:30:18 86° WNW 18:35:24 10° NNW
Resurs 01 Rocket 3.1 18:32:25 29° N 18:32:25 29° N 18:34:40 10° N
H-2A R/B (2) 3.9 18:36:14 10° SW 18:38:11 23° SSW 18:38:11 23° SSW
Okean-O 4.5 18:46:44 24° N 18:46:44 24° N 18:48:34 10° N
USA 267 4.3 18:58:14 33° NNE 18:58:26 33° NNE 19:04:06 10° NW
Cosmos 2369 Rocket 3.7 19:18:29 10° NNW 19:21:10 30° NNW 19:21:10 30° NNW
Lacrosse 5 3.9 19:20:28 10° NW 19:22:30 24° NW 19:22:30 24° NW
SL-16 R/B 3.7 19:23:44 10° WSW 19:28:47 33° WNW 19:33:53 10° N
Cosmos 1943 Rocket 4.4 19:31:28 10° WNW 19:35:09 18° W 19:35:35 18° WSW
ADEOS Rocket 4.5 19:38:43 38° WSW 19:40:02 40° W 19:46:52 10° NNW
CZ-4C R/B 4.3 19:34:05 10° NNW 19:38:13 28° NNE 19:38:13 28° NNE
CENTAUR R/B 3.7 19:36:55 10° NNW 19:43:21 54° N 19:43:21 54° N
